Hourly Data Report for September 30, 2017

All times are specified in Local Standard Time (LST). Add 1 hour to adjust for Daylight Saving Time where and when it is observed.

DOAKTOWN AUTO RCS
NEW BRUNSWICK

46°35'06.090" N
66°00'35.071" W
43.00 m
8101201
71038
ADN

Download Data

Hourly Data (September 2017)
Hourly Data Report for September 30, 2017
Temp Definition
°C
Dew Point Temp Definition
°C
Rel Hum Definition
%
Wind Dir Definition
10's deg

Wind Spd Definition
km/h
Visibility Definition
km
Stn Press Definition
kPa
Hmdx Definition


Wind Chill Definition


Weather Definition


TIME
00:00 4.6 1.1 78 31 6   101.35     LegendNANA
01:00 1.5 0.1 90 28 2   101.42     LegendNANA
02:00 0.5 -0.4 93 25 4   101.46     LegendNANA
03:00 -0.2 -1.0 95 0 1   101.51   -1 LegendNANA
04:00 -1.2 -1.9 95 28 3   101.54   -2 LegendNANA
05:00 -1.4 -1.9 96 0 1   101.64   -2 LegendNANA
06:00 -1.6 -2.1 96 25 1   101.70   -2 LegendNANA
07:00 -0.7 -1.1 97 23 3   101.78   -2 LegendNANA
08:00 1.7 1.1 95 21 2   101.84     LegendNANA
09:00 7.1 1.2 66 2 7   101.87     LegendNANA
10:00 8.4 -0.8 52 2 10   101.89     LegendNANA
11:00 9.8 -0.4 49 8 6   101.88     LegendNANA
12:00 10.6 -0.9 45 7 6   101.87     LegendNANA
13:00 11.1 -1.3 42 1 8   101.83     LegendNANA
14:00 12.3 -1.0 40 30 6   101.79     LegendNANA
15:00 13.3 -1.8 35 16 4   101.74     LegendNANA
16:00 12.9 -1.8 36 13 2   101.73     LegendNANA
17:00 12.7 -2.1 36 16 2   101.71     LegendNANA
18:00 7.3 2.3 71   0   101.72     LegendNANA
19:00 4.8 2.0 82 29 2   101.79     LegendNANA
20:00 3.2 1.4 88   0   101.83     LegendNANA
21:00 1.7 0.6 92   0   101.85     LegendNANA
22:00 1.0 0.2 94 24 2   101.82     LegendNANA
23:00 0.4 -0.3 95 0 1   101.82     LegendNANA

Notes on Data Quality.

Legend

  • E = Estimated
  • M = Missing
  • NA = Not Available
  • ‡ = Partner data that is not subject to review by the National Climate Archives
Date modified: